www.pogodaiklimat.ru

Погода и климат >> Архив погоды >> Бразилия >> Гояс >> Морриньюс


ПОГОДА в Морриньюсе

  • Прогноз погоды в Морриньюсе
  • Монитор погоды в Морриньюсе

АРХИВ ПОГОДЫ в Морриньюсе

Время (UTC), дата Ветер
(напр.,м/с)
 
Видим.   Явления Облачность Т
(С)
Тd
(С)
f
(%)
Тe
(С)
Тes
(С)
Комфортность P
(гПа)
Po
(гПа)
Тmin
(С)
Tmax
(С)
R
(мм)
R24
(мм)
S
(см)
22 16.07 Ю 2
{2}
н/о н/о +20.6 +12.1 58 +23 +23 комфорт 1016.9 931.8
23 16.07 ЮЗ 1
{2}
н/о н/о +19.3 +11.6 61 +22 +22 комфорт 1018.1 932.5
00 17.07 штиль 0
{1}
н/о н/о +19.2 +11.8 62 +20 +20 1018.7 933.1
01 17.07 штиль 0
{1}
н/о н/о +18.6 +11.8 65 +19 +19 1019.5 933.6
02 17.07 ЮЗ 1
{1}
н/о н/о +16.9 +12.0 73 +18 +18 1020.1 933.7
03 17.07 штиль 0
{1}
н/о н/о +16.8 +11.8 72 +17 +17 1020.1 933.7
04 17.07 штиль 0
{1}
н/о н/о +16.1 +11.7 75 +16 +16 1020.1 933.5
05 17.07 штиль 0
{1}
н/о н/о +15.8 +11.8 77 +16 +16 1020.0 933.3
06 17.07 штиль 0
{1}
н/о н/о +14.9 +11.5 80 +15 +15 1019.8 932.8
07 17.07 ЮЗ 1
{1}
н/о н/о +13.5 +11.0 85 +14 +14 1020.2 932.8
08 17.07 штиль 0
{1}
н/о н/о +14.2 +11.8 85 +14 +14 1020.2 933.0
09 17.07 штиль 0
{1}
н/о н/о +13.7 +11.4 86 +13 +13 1020.6 933.2
10 17.07 штиль 0
{1}
н/о н/о +13.0 +10.9 87 +13 +13 1021.4 933.8
11 17.07 штиль 0
{1}
н/о н/о +15.9 +12.9 82 +16 +16 1021.5 934.7
12 17.07 ЮВ 1
{2}
н/о н/о +19.6 +13.5 68 +22 +22 комфорт 1021.5 935.7
13 17.07 ЮВ 1
{2}
н/о н/о +22.6 +13.5 56 +26 +26 жарко 1021.0 936.1
14 17.07 ЮВ 2
{3}
н/о н/о +24.7 +12.4 46 +26 +26 жарко 1020.0 935.8
15 17.07 Ю 1
{3}
н/о н/о +26.3 +12.7 43 +28 +28 жарко 1019.0 935.3
16 17.07 Ю 2
{3}
н/о н/о +27.0 +11.9 39 +28 +28 жарко 1017.7 934.3
17 17.07 ЮВ 1
{3}
н/о н/о +28.4 +11.4 35 +29 +29 жарко 1016.3 933.4
18 17.07 ЮВ 1
{3}
н/о н/о +27.7 +10.5 34 +28 +28 жарко 1015.9 932.8
19 17.07 Ю 1
{3}
н/о н/о +26.3 +10.8 38 +27 +27 жарко 1016.2 932.7
21 17.07 Ю 1
{2}
н/о н/о +21.4 +12.0 55 +24 +24 комфорт 1018.2 933.2
22 17.07 штиль 0
{2}
н/о н/о +19.0 +12.2 65 +20 +20 1019.4 933.6
23 17.07 штиль 0
{2}
н/о н/о +19.4 +10.9 58 +20 +20 1019.9 934.2
00 18.07 ЮЗ 1
{1}
н/о н/о +16.8 +9.4 62 +18 +18 1021.2 934.7
01 18.07 штиль 0
{1}
н/о н/о +17.6 +10.0 61 +18 +18 1021.4 935.1
02 18.07 штиль 0
{1}
н/о н/о +15.9 +9.1 64 +16 +16 1022.0 935.1
03 18.07 штиль 0
{1}
н/о н/о +15.1 +9.3 68 +15 +15 1022.1 935.0
04 18.07 ЮВ 1
{1}
н/о н/о +12.2 +9.3 82 +13 +13 1022.6 934.6
06 18.07 штиль 0
{1}
н/о н/о +12.0 +8.3 78 +12 +12 1022.0 934.0
07 18.07 штиль 0
{1}
н/о н/о +12.5 +8.8 78 +12 +12 1021.6 933.8
08 18.07 штиль 0
{1}
н/о н/о +11.4 +8.3 81 +11 +11 1022.0 933.8
09 18.07 штиль 0
{1}
н/о н/о +10.9 +7.8 81 +10 +10 1022.7 934.3
10 18.07 штиль 0
{1}
н/о н/о +11.0 +8.7 86 +10 +10 1023.2 934.8
11 18.07 ЮВ 1
{1}
н/о н/о +13.3 +10.1 81 +14 +14 1023.3 935.6
12 18.07 ЮВ 1
{2}
н/о н/о +17.2 +11.3 68 +18 +18 1023.0 936.4
13 18.07 В 3
{5}
н/о н/о +21.7 +12.2 55 +24 +24 комфорт 1021.9 936.7
14 18.07 В 2
{5}
н/о н/о +24.3 +12.8 49 +26 +26 жарко 1020.8 936.4
15 18.07 СВ 2
{5}
н/о н/о +26.2 +12.7 43 +28 +28 жарко 1019.4 935.6
16 18.07 СВ 2
{5}
н/о н/о +27.1 +11.5 38 +28 +28 жарко 1018.1 934.7
17 18.07 В 2
{5}
н/о н/о +27.6 +12.2 38 +29 +29 жарко 1017.1 933.9
18 18.07 В 2
{4}
н/о н/о +28.1 +10.3 33 +29 +29 жарко 1016.2 933.2
19 18.07 В 1
{4}
н/о н/о +28.1 +9.7 32 +28 +28 жарко 1015.9 932.9
20 18.07 В 2
{3}
н/о н/о +27.2 +10.0 34 +28 +28 жарко 1016.4 933.1
21 18.07 В 1
{3}
н/о н/о +24.1 +11.2 44 +25 +25 комфорт 1017.7 933.5
22 18.07 штиль 0
{2}
н/о н/о +21.6 +11.9 54 +24 +24 комфорт 1018.9 933.9
23 18.07 штиль 0
{1}
н/о н/о +19.7 +12.5 63 +21 +21 комфорт 1020.0 934.4
00 19.07 штиль 0
{1}
н/о н/о +18.9 +12.5 66 +20 +20 1021.0 935.1
01 19.07 В 1
{3}
н/о н/о +18.1 +12.6 70 +19 +19 1021.6 935.4
02 19.07 В 1
{2}
н/о н/о +17.7 +12.7 73 +19 +19 1021.8 935.5
03 19.07 ЮВ 1
{2}
н/о н/о +16.7 +12.5 76 +18 +18 1022.0 935.4
04 19.07 ЮЗ 1
{3}
н/о н/о +16.3 +12.3 77 +18 +18 1021.9 935.2
05 19.07 ЮЗ 1
{1}
н/о н/о +16.9 +12.5 75 +18 +18 1021.3 934.8
06 19.07 ЮВ 1
{1}
н/о н/о +14.5 +12.2 86 +16 +16 1021.8 934.6
07 19.07 ЮВ 1
{2}
н/о н/о +16.1 +12.5 79 +17 +17 1021.7 934.9
08 19.07 ЮВ 1
{2}
н/о н/о +14.4 +11.9 85 +15 +15 1022.2 934.9
09 19.07 ЮВ 1
{2}
н/о н/о +14.2 +11.4 83 +15 +15 1022.9 935.5
10 19.07 ЮВ 1
{3}
н/о н/о +14.6 +11.0 79 +16 +16 1023.6 936.2
11 19.07 ЮВ 1
{2}
н/о н/о +17.2 +11.8 71 +19 +19 1023.7 937.1
12 19.07 В 2
{4}
н/о н/о +19.8 +10.9 56 +22 +22 комфорт 1023.6 937.7
13 19.07 В 3
{5}
н/о н/о +22.0 +10.5 48 +24 +24 комфорт 1023.2 938.0
14 19.07 В 3
{5}
н/о н/о +22.8 +9.5 43 +24 +24 комфорт 1022.6 937.6
15 19.07 В 3
{6}
н/о н/о +24.6 +9.3 38 +25 +25 комфорт 1021.4 937.0
16 19.07 В 3
{5}
н/о н/о +25.6 +9.2 35 +26 +26 жарко 1019.8 935.8
17 19.07 В 2
{5}
н/о н/о +26.2 +8.6 33 +26 +26 жарко 1018.3 934.6
18 19.07 В 3
{5}
н/о н/о +26.2 +7.5 30 +26 +26 жарко 1017.6 934.0
19 19.07 В 2
{4}
н/о н/о +26.3 +7.3 30 +26 +26 жарко 1017.3 933.7
20 19.07 В 2
{4}
н/о н/о +25.5 +7.7 32 +26 +26 жарко 1017.7 933.9
21 19.07 В 1
{3}
н/о н/о +22.5 +8.4 40 +24 +24 комфорт 1019.1 934.3
22 19.07 штиль 0
{2}
н/о н/о +18.9 +9.5 54 +19 +19 1020.3 934.4
23 19.07 ЮЗ 1
{1}
н/о н/о +17.5 +9.5 59 +19 +19 1021.5 935.1
00 20.07 ЮВ 1
{2}
н/о н/о +15.3 +10.2 72 +17 +17 1022.8 935.7
01 20.07 штиль 0
{1}
н/о н/о +16.1 +9.4 64 +16 +16 1023.2 936.3
02 20.07 ЮЗ 1
{1}
н/о н/о +15.7 +9.0 64 +17 +17 1023.3 936.3
03 20.07 ЮЗ 1
{1}
н/о н/о +14.8 +8.8 67 +15 +15 1023.4 936.1
05 20.07 штиль 0
{1}
н/о н/о +12.5 +8.9 79 +12 +12 1022.8 934.9
06 20.07 Ю 1
{1}
н/о н/о +12.8 +7.7 71 +14 +14 1022.4 934.6
07 20.07 ЮЗ 1
{2}
н/о н/о +12.6 +7.6 72 +13 +13 1022.2 934.4
08 20.07 Ю 1
{2}
н/о н/о +11.8 +6.9 72 +13 +13 1022.6 934.5
09 20.07 штиль 0
{1}
н/о н/о +12.1 +7.3 72 +12 +12 1022.7 934.7
10 20.07 ЮЗ 1
{1}
н/о н/о +11.8 +7.3 74 +12 +12 1023.3 935.1
11 20.07 ЮЗ 1
{1}
н/о н/о +14.0 +9.2 73 +15 +15 1023.0 935.5
12 20.07 В 2
{4}
н/о н/о +18.2 +9.5 57 +19 +19 1022.4 936.2
13 20.07 В 3
{5}
н/о н/о +20.5 +9.9 51 +23 +23 комфорт 1021.9 936.4
14 20.07 СВ 3
{5}
н/о н/о +22.2 +8.2 41 +23 +23 комфорт 1021.0 936.0
15 20.07 СВ 2
{5}
н/о н/о +24.2 +9.0 38 +25 +25 комфорт 1019.6 935.3
16 20.07 В 2
{4}
н/о н/о +25.2 +7.7 33 +25 +25 комфорт 1018.5 934.5
17 20.07 В 2
{4}
н/о н/о +26.0 +7.4 31 +26 +26 жарко 1017.0 933.4
18 20.07 ЮВ 2
{4}
н/о н/о +26.3 +7.3 30 +26 +26 жарко 1016.2 932.7
19 20.07 В 2
{4}
н/о н/о +26.4 +7.5 30 +26 +26 жарко 1016.1 932.6
20 20.07 В 2
{3}
н/о н/о +25.1 +6.7 31 +25 +25 комфорт 1016.4 932.6
21 20.07 В 2
{3}
н/о н/о +22.5 +7.1 37 +23 +23 комфорт 1017.2 932.6
22 20.07 В 1
{2}
н/о н/о +19.1 +8.2 49 +21 +21 комфорт 1018.6 932.9
23 20.07 В 2
{3}
н/о н/о +19.7 +8.2 47 +21 +21 комфорт 1019.0 933.5
00 21.07 В 2
{4}
н/о н/о +19.6 +8.6 49 +21 +21 комфорт 1019.6 934.0
01 21.07 СВ 2
{4}
н/о н/о +18.8 +8.7 52 +20 +20 1020.5 934.6
02 21.07 СВ 2
{4}
н/о н/о +18.0 +9.0 56 +19 +19 1020.8 934.6
03 21.07 СВ 2
{3}
н/о н/о +17.8 +8.7 55 +19 +19 1020.6 934.4
04 21.07 С 1
{3}
н/о н/о +15.6 +8.8 64 +16 +16 1021.2 934.3
05 21.07
{2}
н/о н/о +14.7 +8.5 66 1021.2 934.1
06 21.07 С 1
{2}
н/о н/о +13.8 +8.4 70 +14 +14 1021.0 933.6
07 21.07 С 1
{2}
н/о н/о +13.8 +8.5 70 +15 +15 1020.1 932.8
08 21.07 С 1
{2}
н/о н/о +13.5 +8.4 71 +14 +14 1020.3 932.9
09 21.07 С 1
{3}
н/о н/о +13.7 +8.1 69 +15 +15 1020.4 933.0
10 21.07 С 1
{2}
н/о н/о +14.1 +8.0 67 +15 +15 1021.1 933.8
11 21.07 СВ 2
{3}
н/о н/о +16.0 +8.1 59 +16 +16 1021.3 934.5
12 21.07 СВ 2
{4}
н/о н/о +18.4 +8.8 54 +19 +19 1021.6 935.5
13 21.07 СВ 3
{6}
н/о н/о +20.1 +9.8 51 +22 +22 комфорт 1021.2 935.6
14 21.07 СВ 2
{6}
н/о н/о +22.1 +10.4 47 +24 +24 комфорт 1020.2 935.2
15 21.07 СВ 3
{5}
н/о н/о +24.5 +9.9 40 +25 +25 комфорт 1018.7 934.5
16 21.07 С 2
{5}
н/о н/о +25.9 +9.2 35 +26 +26 жарко 1017.3 933.6
17 21.07 СВ 2
{5}
н/о н/о +26.2 +8.7 33 +26 +26 жарко 1016.0 932.5
18 21.07 СВ 2
{4}
н/о н/о +26.5 +8.2 31 +26 +26 жарко 1015.7 932.3
19 21.07 С 1
{4}
н/о н/о +27.5 +8.2 30 +27 +27 жарко 1015.2 932.1
20 21.07 СВ 2
{3}
н/о н/о +25.9 +8.6 33 +26 +26 жарко 1015.5 932.0
21 21.07 В 2
{3}
н/о н/о +23.1 +9.8 43 +25 +25 комфорт 1016.6 932.2
22 21.07 В 2
{3}
н/о н/о +22.2 +9.9 46 +24 +24 комфорт 1017.5 932.8
23 21.07 В 2
{4}
н/о н/о +21.3 +9.9 48 +23 +23 комфорт 1018.2 933.2
00 22.07 СВ 2
{4}
н/о н/о +21.1 +9.8 48 +22 +22 комфорт 1019.1 934.0
01 22.07 СВ 2
{4}
н/о н/о +20.7 +10.3 51 +23 +23 комфорт 1019.8 934.5
02 22.07 СВ 2
{4}
н/о н/о +19.9 +10.5 55 +22 +22 комфорт 1019.9 934.4
03 22.07 СВ 2
{4}
н/о н/о +19.6 +10.5 56 +22 +22 комфорт 1019.6 934.0
04 22.07 СВ 1
{3}
н/о н/о +18.2 +10.8 62 +20 +20 1019.9 933.9
05 22.07 С 1
{3}
н/о н/о +17.8 +10.7 63 +19 +19 1019.6 933.5
06 22.07 С 1
{2}
н/о н/о +17.0 +10.8 67 +18 +18 1019.8 933.4
07 22.07 С 1
{2}
н/о н/о +16.1 +10.7 70 +18 +18 1020.1 933.5
08 22.07 СВ 1
{3}
н/о н/о +17.0 +10.9 67 +18 +18 1019.9 933.5
09 22.07 СВ 1
{3}
н/о н/о +16.5 +10.7 69 +17 +17 1020.7 934.1
10 22.07 В 2
{3}
н/о н/о +16.9 +10.5 66 +17 +17 1021.3 934.8
11 22.07 СВ 3
{5}
н/о н/о +17.7 +10.4 62 +18 +18 1021.5 935.2
12 22.07 СВ 3
{6}
н/о н/о +19.6 +9.9 53 +21 +21 комфорт 1021.6 935.8
13 22.07 СВ 4
{7}
н/о н/о +21.5 +9.9 48 +23 +23 комфорт 1021.1 935.9
14 22.07 СВ 3
{7}
н/о н/о +22.9 +8.9 41 +24 +24 комфорт 1020.7 935.9
15 22.07 СВ 2
{5}
н/о н/о +24.7 +9.0 37 +25 +25 комфорт 1019.7 935.5
16 22.07 СВ 3
{4}
н/о н/о +26.6 +8.1 31 +27 +27 жарко 1018.2 934.6
17 22.07 В 2
{5}
н/о н/о +26.5 +7.0 29 +26 +26 жарко 1017.3 933.8
18 22.07 В 2
{4}
н/о н/о +27.0 +7.8 30 +27 +27 жарко 1016.3 933.0
19 22.07 В 2
{4}
н/о н/о +27.2 +7.9 30 +27 +27 жарко 1016.0 932.8
20 22.07 В 2
{3}
н/о н/о +25.4 +7.3 32 +25 +25 комфорт 1016.8 933.0
21 22.07 В 1
{3}
н/о н/о +23.0 +7.8 38 +24 +24 комфорт 1017.8 933.3
22 22.07 ЮВ 1
{2}
н/о н/о +19.2 +9.4 53 +22 +22 комфорт 1019.3 933.6
23 22.07 штиль 0
{1}
н/о н/о +17.5 +9.7 60 +18 +18 1020.6 934.3
00 23.07 З 1
{1}
н/о н/о +16.5 +9.2 62 +18 +18 1021.3 934.7
01 23.07 штиль 0
{1}
н/о н/о +16.4 +9.4 63 +16 +16 1021.8 935.1
02 23.07 В 1
{2}
н/о н/о +16.1 +10.1 68 +17 +17 1021.9 935.1
03 23.07 С 1
{2}
н/о н/о +17.1 +9.8 62 +19 +19 1021.6 935.1
04 23.07 С 1
{2}
н/о н/о +16.8 +9.9 64 +18 +18 1021.3 934.8
05 23.07 СВ 1
{2}
н/о н/о +17.2 +9.7 61 +19 +19 1020.6 934.2
06 23.07 штиль 0
{2}
н/о н/о +14.8 +9.6 71 +15 +15 1021.2 934.1
07 23.07 С 1
{1}
н/о н/о +14.0 +9.5 74 +15 +15 1021.7 934.3
08 23.07 штиль 0
{1}
н/о н/о +11.1 +8.4 83 +10 +10 1022.8 934.5
09 23.07 З 1
{1}
н/о н/о +12.2 +9.1 81 +13 +13 1023.0 935.0
10 23.07 штиль 0
{1}
н/о н/о +12.0 +9.3 84 +11 +11 1023.6 935.5
11 23.07 штиль 0
{1}
н/о н/о +16.3 +11.0 71 +16 +16 1023.0 936.2
12 23.07 В 2
{3}
н/о н/о +20.2 +11.0 55 +23 +23 комфорт 1022.5 936.8
13 23.07 СВ 3
{5}
н/о н/о +21.5 +11.1 52 +23 +23 комфорт 1022.4 937.1
14 23.07 СВ 3
{5}
н/о н/о +23.3 +11.4 47 +26 +26 жарко 1021.5 936.8
15 23.07 СВ 2
{5}
н/о н/о +24.8 +11.3 43 +26 +26 жарко 1020.2 936.0
17 23.07 С 2
{4}
н/о н/о +26.3 +11.0 38 +27 +27 жарко 1017.7 934.1
18 23.07 СВ 2
{4}
н/о н/о +26.5 +9.5 34 +27 +27 жарко 1016.7 933.2
19 23.07 В 2
{5}
н/о н/о +26.6 +10.7 37 +27 +27 жарко 1016.3 932.9

 

Местоположение метеостанции Морриньюс (Гояс, Бразилия): широта -17.72 долгота -49.10 высота над уровнем моря 773 м.

В архиве по умолчанию представлена погода в Морриньюсе за последнюю неделю. Архивные данные за месяц целиком и за предыдущие месяцы, начиная с января 2011 года, Вы можете получить, выбрав интересующий диапазон дат из раскрывающегося списка и нажав кнопку "Ввод!".


*Определитесь, кто Вы:
робот инопланетянин человек

Внимание! Время в таблицах - всемирное. Для получения местного времени необходимо прибавить поправку, которая равна -3 ч.

Смотрите также архив погоды в соседних городах и на ближайших метеорологических станциях:

Погода в Итумбиаре (Гояс, Бразилия) (79 км)
Погода в Пирис-ду-Риу (Гояс, Бразилия) (99 км)
Погода в Гоянии (Гояс, Бразилия) (119 км)
Погода в Гоянии (Гояс, Бразилия) (120 км)
Погода в Силвании (Гояс, Бразилия) (126 км)
Погода в Каталане (Гояс, Бразилия) (132 км)
Погода в Каталане (Гояс, Бразилия) (133 км)
Погода в Итиютабе (Минас-Жерайс, Бразилия) (144 км)
Погода в Уберландии (Минас-Жерайс, Бразилия) (161 км)
Погода в Парауне (Гояс, Бразилия) (165 км)

Пояснения к столбцам:

Ветер - указаны скорость ветра в м/с - средняя за 10 мин, порывы в срок и между сроками (в фигурных скобках) и направление, откуда дует ветер: С - северный, СВ - северо-восточный, В - восточный, ЮВ - юго-восточный, Ю - южный, ЮЗ - юго-западный, З - западный, СЗ - северо-западный.
Видимость - горизонтальная дальность видимости в метрах или километрах. При видимости от 1 до 10 км при отсутствии осадков обычно наблюдается дымка, при ухудшении видимости до 1 км и менее - туман. В сухую погоду видимость может ухудшаться дымом, пылью или мглою.
Явления - указаны атмосферные явления, наблюдавшиеся в срок или в последний час перед сроком; фигурными скобками обозначены явления, наблюдавшиеся между сроками (за 1-3 часа до срока); квадратными скобками обозначены град или гололедные отложения с указанием их диаметра в мм.
Облачность - указаны через наклонную черту общая и нижняя облачность в баллах и высота нижней границы облаков в метрах; квадратными скобками обозначены формы облаков: Ci - перистые, Cs - перисто-слоистые, Cc - перисто-кучевые, Ac - высококучевые, As - высокослоистые, Sc - слоисто-кучевые, Ns - слоисто-дождевые, Cu - кучевые, Cb - кучево-дождевые. Подробнее классификацию облаков см. в Атласе облаков (PDF).
T - Температура воздуха - температура, измеренная на высоте 2 м над землей.
Td - Температура точки росы - температура, при понижении до которой содержащийся в воздухе водяной пар достигнет насыщения.
f - Относительная влажность воздуха - влажноcть воздуха, измеренная на высоте 2 м над землей.
Te - Эффективная температура - температура, которую ощущает одетый по сезону человек в тени. Характеристика душности погоды. При расчете учитывается влияние влажности воздуха и скорости ветра на теплоощущения человека.
Tes - Эффективная температура на солнце - температура, которую ощущает человек, с поправкой на солнечный нагрев. Характеристика знойности погоды. Зависит от высоты солнца над горизонтом, облачности и скорости ветра. Ночью, в пасмурную погоду, а также при ветре 12 м/с и более поправка равна нулю.
P - Атмосферное давление - приведенное к уровню моря атмосферное давление.
Po - Атмосферное давление - измеренное на уровне метеостанции атмосферное давление.
Tmin - Минимальная температура - минимум температуры воздуха на высоте 2 м над землей.
Tmax - Максимальная температура - максимум температуры воздуха на высоте 2 м над землей.
R - Количество осадков - Количество выпавших осадков за период времени, мм. При наведении курсора мыши на число - период времени, за который выпало указанное количество осадков.
R24 - Количество осадков - Количество выпавших осадков за 24 часа, мм.
S - Снежный покров - Высота снежного покрова, см. При наведении курсора мыши на число - состояние снежного покрова и степень покрытия местности в баллах.